Time,TemperatureF,DewpointF,PressureIn,WindDirection,WindDirectionDegrees,WindSpeedMPH,WindSpeedGustMPH,Humidity,HourlyPrecipIn,Conditions,Clouds,dailyrainin,SoftwareType,DateUTC
2013-01-25 00:13:00,20.5,6.0,27.35,SSE,161,0.0,-999.0,53,-99.99,,,0.00,weatherlink.com 1.10,2013-01-25 05:13:00,
2013-01-25 00:28:00,20.4,5.0,27.35,WSW,256,1.0,-999.0,51,-99.99,,,0.00,weatherlink.com 1.10,2013-01-25 05:28:00,
2013-01-25 00:43:00,20.5,5.0,27.35,WNW,303,0.0,-999.0,51,-99.99,,,0.00,weatherlink.com 1.10,2013-01-25 05:43:00,
2013-01-25 00:58:00,20.1,5.0,27.35,West,277,0.0,-999.0,52,-99.99,,,0.00,weatherlink.com 1.10,2013-01-25 05:58:00,
2013-01-25 01:14:00,20.0,4.0,27.35,WNW,288,2.0,-999.0,51,-99.99,,,0.00,weatherlink.com 1.10,2013-01-25 06:14:00,
2013-01-25 01:28:00,20.0,4.0,27.35,WSW,239,0.0,-999.0,50,-99.99,,,0.00,weatherlink.com 1.10,2013-01-25 06:28:00,
2013-01-25 01:43:00,20.0,4.0,27.35,NNW,327,0.0,-999.0,50,-99.99,,,0.00,weatherlink.com 1.10,2013-01-25 06:43:00,
2013-01-25 01:58:00,19.7,4.0,27.35,West,260,1.0,-999.0,50,-99.99,,,0.00,weatherlink.com 1.10,2013-01-25 06:58:00,
2013-01-25 02:13:00,19.7,4.0,27.35,NW,318,1.0,-999.0,50,-99.99,,,0.00,weatherlink.com 1.10,2013-01-25 07:13:00,
2013-01-25 02:28:00,19.7,3.0,27.35,WSW,256,0.0,-999.0,49,-99.99,,,0.00,weatherlink.com 1.10,2013-01-25 07:28:00,
2013-01-25 02:43:00,19.4,4.0,27.35,SSW,200,0.0,-999.0,51,-99.99,,,0.00,weatherlink.com 1.10,2013-01-25 07:43:00,
2013-01-25 02:59:00,19.6,4.0,27.35,NW,307,0.0,-999.0,52,-99.99,,,0.00,weatherlink.com 1.10,2013-01-25 07:59:00,
2013-01-25 03:14:00,19.4,4.0,27.35,NW,307,0.0,-999.0,52,-99.99,,,0.00,weatherlink.com 1.10,2013-01-25 08:14:00,
2013-01-25 03:29:00,18.9,4.0,27.35,NNW,328,0.0,-999.0,52,-99.99,,,0.00,weatherlink.com 1.10,2013-01-25 08:29:00,
2013-01-25 03:43:00,18.8,4.0,27.35,WNW,292,0.0,-999.0,52,-99.99,,,0.00,weatherlink.com 1.10,2013-01-25 08:43:00,
2013-01-25 03:59:00,18.9,4.0,27.35,WNW,287,0.0,-999.0,52,-99.99,,,0.00,weatherlink.com 1.10,2013-01-25 08:59:00,
2013-01-25 04:13:00,19.1,4.0,27.35,WNW,292,1.0,-999.0,52,-99.99,,,0.00,weatherlink.com 1.10,2013-01-25 09:13:00,
2013-01-25 04:28:00,19.1,4.0,27.35,WNW,292,0.0,-999.0,53,-99.99,,,0.00,weatherlink.com 1.10,2013-01-25 09:28:00,
2013-01-25 04:44:00,19.1,4.0,27.35,NW,314,1.0,-999.0,52,-99.99,,,0.00,weatherlink.com 1.10,2013-01-25 09:44:00,
2013-01-25 04:58:00,19.3,4.0,27.35,NW,307,0.0,-999.0,51,-99.99,,,0.00,weatherlink.com 1.10,2013-01-25 09:58:00,
2013-01-25 05:13:00,19.3,4.0,27.35,NW,306,2.0,-999.0,51,-99.99,,,0.00,weatherlink.com 1.10,2013-01-25 10:13:00,
2013-01-25 05:28:00,19.3,4.0,27.35,NNW,344,0.0,-999.0,52,-99.99,,,0.00,weatherlink.com 1.10,2013-01-25 10:28:00,
2013-01-25 05:43:00,19.4,5.0,27.35,NW,315,0.0,-999.0,53,-99.99,,,0.00,weatherlink.com 1.10,2013-01-25 10:43:00,
2013-01-25 05:59:00,19.4,5.0,27.35,NW,316,0.0,-999.0,54,-99.99,,,0.00,weatherlink.com 1.10,2013-01-25 10:59:00,
2013-01-25 06:13:00,19.3,5.0,27.35,East,83,0.0,-999.0,53,-99.99,,,0.00,weatherlink.com 1.10,2013-01-25 11:13:00,
2013-01-25 06:29:00,19.3,5.0,27.35,NNW,329,0.0,-999.0,53,-99.99,,,0.00,weatherlink.com 1.10,2013-01-25 11:29:00,
2013-01-25 06:43:00,19.3,4.0,27.35,NNW,329,0.0,-999.0,52,-99.99,,,0.00,weatherlink.com 1.10,2013-01-25 11:43:00,
2013-01-25 06:59:00,19.4,5.0,27.35,NNW,329,0.0,-999.0,54,-99.99,,,0.00,weatherlink.com 1.10,2013-01-25 11:59:00,
2013-01-25 07:13:00,19.2,5.0,27.35,NNW,329,0.0,-999.0,54,-99.99,,,0.00,weatherlink.com 1.10,2013-01-25 12:13:00,
2013-01-25 07:29:00,19.1,4.0,27.35,NNW,329,0.0,-999.0,52,-99.99,,,0.00,weatherlink.com 1.10,2013-01-25 12:29:00,
2013-01-25 07:44:00,18.9,5.0,27.35,NNW,329,0.0,-999.0,54,-99.99,,,0.00,weatherlink.com 1.10,2013-01-25 12:44:00,
2013-01-25 07:58:00,18.9,5.0,27.35,NNW,329,0.0,-999.0,55,-99.99,,,0.00,weatherlink.com 1.10,2013-01-25 12:58:00,
2013-01-25 08:14:00,19.5,6.0,27.35,NNW,329,0.0,-999.0,55,-99.99,,,0.00,weatherlink.com 1.10,2013-01-25 13:14:00,
2013-01-25 08:29:00,20.2,5.0,27.35,NNW,329,0.0,-999.0,53,-99.99,,,0.00,weatherlink.com 1.10,2013-01-25 13:29:00,
2013-01-25 08:44:00,20.7,5.0,27.35,NNW,329,0.0,-999.0,51,-99.99,,,0.00,weatherlink.com 1.10,2013-01-25 13:44:00,
2013-01-25 08:59:00,20.9,4.0,27.35,NNW,329,0.0,-999.0,49,-99.99,,,0.00,weatherlink.com 1.10,2013-01-25 13:59:00,
2013-01-25 09:14:00,21.4,5.0,27.35,NNW,329,0.0,-999.0,50,-99.99,,,0.00,weatherlink.com 1.10,2013-01-25 14:14:00,
2013-01-25 09:29:00,21.7,4.0,27.35,NNW,329,0.0,-999.0,47,-99.99,,,0.00,weatherlink.com 1.10,2013-01-25 14:29:00,
2013-01-25 09:44:00,22.2,5.0,27.35,NNW,329,0.0,-999.0,48,-99.99,,,0.00,weatherlink.com 1.10,2013-01-25 14:44:00,
2013-01-25 09:59:00,22.5,5.0,27.35,NNW,329,0.0,-999.0,47,-99.99,,,0.00,weatherlink.com 1.10,2013-01-25 14:59:00,
2013-01-25 10:14:00,23.3,5.0,27.35,ESE,112,0.0,-999.0,46,-99.99,,,0.00,weatherlink.com 1.10,2013-01-25 15:14:00,
2013-01-25 10:29:00,23.4,6.0,27.35,ENE,78,0.0,-999.0,47,-99.99,,,0.00,weatherlink.com 1.10,2013-01-25 15:29:00,
2013-01-25 10:44:00,23.6,6.0,27.35,East,90,1.0,-999.0,47,-99.99,,,0.00,weatherlink.com 1.10,2013-01-25 15:44:00,
2013-01-25 10:59:00,23.9,7.0,27.35,SSE,155,0.0,-999.0,49,-99.99,,,0.00,weatherlink.com 1.10,2013-01-25 15:59:00,
2013-01-25 11:14:00,24.0,6.0,27.35,SE,144,0.0,-999.0,47,-99.99,,,0.00,weatherlink.com 1.10,2013-01-25 16:14:00,
2013-01-25 11:29:00,24.1,7.0,27.35,SE,136,0.0,-999.0,48,-99.99,,,0.00,weatherlink.com 1.10,2013-01-25 16:29:00,
2013-01-25 11:44:00,24.3,8.0,27.35,ESE,107,1.0,-999.0,49,-99.99,,,0.00,weatherlink.com 1.10,2013-01-25 16:44:00,
2013-01-25 11:59:00,24.0,7.0,27.35,SW,215,1.0,-999.0,48,-99.99,,,0.00,weatherlink.com 1.10,2013-01-25 16:59:00,
2013-01-25 12:14:00,24.0,7.0,27.35,SSE,157,0.0,-999.0,48,-99.99,,,0.00,weatherlink.com 1.10,2013-01-25 17:14:00,
2013-01-25 12:29:00,24.4,7.0,27.35,SSW,211,0.0,-999.0,48,-99.99,,,0.00,weatherlink.com 1.10,2013-01-25 17:29:00,
2013-01-25 12:44:00,24.4,8.0,27.35,ESE,111,1.0,-999.0,50,-99.99,,,0.00,weatherlink.com 1.10,2013-01-25 17:44:00,
2013-01-25 12:59:00,24.3,8.0,27.35,SSW,196,0.0,-999.0,49,-99.99,,,0.00,weatherlink.com 1.10,2013-01-25 17:59:00,
2013-01-25 13:14:00,24.3,7.0,27.35,South,190,0.0,-999.0,48,-99.99,,,0.00,weatherlink.com 1.10,2013-01-25 18:14:00,
2013-01-25 13:29:00,24.3,8.0,27.35,South,178,0.0,-999.0,49,-99.99,,,0.00,weatherlink.com 1.10,2013-01-25 18:29:00,
2013-01-25 13:44:00,24.4,8.0,27.35,SE,145,0.0,-999.0,50,-99.99,,,0.00,weatherlink.com 1.10,2013-01-25 18:44:00,
2013-01-25 13:59:00,24.5,9.0,27.35,South,169,0.0,-999.0,51,-99.99,,,0.00,weatherlink.com 1.10,2013-01-25 18:59:00,
2013-01-25 14:14:00,24.2,9.0,27.35,SSE,156,0.0,-999.0,52,-99.99,,,0.00,weatherlink.com 1.10,2013-01-25 19:14:00,
2013-01-25 14:29:00,23.5,12.0,27.35,SSE,163,0.0,-999.0,62,-99.99,,,0.00,weatherlink.com 1.10,2013-01-25 19:29:00,
2013-01-25 14:44:00,22.9,13.0,27.35,SSW,200,0.0,-999.0,65,-99.99,,,0.00,weatherlink.com 1.10,2013-01-25 19:44:00,
2013-01-25 14:59:00,22.6,13.0,27.35,SSW,205,1.0,-999.0,68,-99.99,,,0.00,weatherlink.com 1.10,2013-01-25 19:59:00,
2013-01-25 15:14:00,22.5,13.0,27.35,South,189,1.0,-999.0,67,-99.99,,,0.00,weatherlink.com 1.10,2013-01-25 20:14:00,
2013-01-25 15:29:00,22.4,14.0,27.35,South,171,1.0,-999.0,69,-99.99,,,0.00,weatherlink.com 1.10,2013-01-25 20:29:00,
2013-01-25 15:44:00,22.3,14.0,27.35,SSW,209,0.0,-999.0,70,-99.99,,,0.00,weatherlink.com 1.10,2013-01-25 20:44:00,
2013-01-25 15:59:00,22.2,13.0,27.35,South,182,0.0,-999.0,69,-99.99,,,0.00,weatherlink.com 1.10,2013-01-25 20:59:00,
2013-01-25 16:14:00,22.2,14.0,27.35,SW,216,0.0,-999.0,70,-99.99,,,0.00,weatherlink.com 1.10,2013-01-25 21:14:00,
2013-01-25 16:29:00,22.2,14.0,27.35,SSW,213,0.0,-999.0,72,-99.99,,,0.00,weatherlink.com 1.10,2013-01-25 21:29:00,
2013-01-25 16:44:00,21.8,15.0,27.35,ESE,123,0.0,-999.0,75,-99.99,,,0.00,weatherlink.com 1.10,2013-01-25 21:44:00,
2013-01-25 16:59:00,21.7,15.0,27.35,SE,141,0.0,-999.0,76,-99.99,,,0.00,weatherlink.com 1.10,2013-01-25 21:59:00,
2013-01-25 17:14:00,21.6,15.0,27.35,ESE,113,0.0,-999.0,77,-99.99,,,0.00,weatherlink.com 1.10,2013-01-25 22:14:00,
2013-01-25 17:29:00,21.3,16.0,27.35,SE,145,0.0,-999.0,80,-99.99,,,0.00,weatherlink.com 1.10,2013-01-25 22:29:00,
2013-01-25 17:44:00,21.0,16.0,27.35,SE,135,1.0,-999.0,81,-99.99,,,0.00,weatherlink.com 1.10,2013-01-25 22:44:00,
2013-01-25 17:59:00,20.5,16.0,27.35,SE,136,0.0,-999.0,82,-99.99,,,0.00,weatherlink.com 1.10,2013-01-25 22:59:00,
2013-01-25 18:14:00,20.3,16.0,27.35,ESE,123,0.0,-999.0,83,-99.99,,,0.00,weatherlink.com 1.10,2013-01-25 23:14:00,
2013-01-25 18:29:00,20.4,16.0,27.35,South,171,0.0,-999.0,84,-99.99,,,0.00,weatherlink.com 1.10,2013-01-25 23:29:00,
2013-01-25 18:44:00,20.7,17.0,27.35,SSE,168,0.0,-999.0,84,-99.99,,,0.00,weatherlink.com 1.10,2013-01-25 23:44:00,
2013-01-25 19:15:00,21.1,17.0,27.35,SSE,168,0.0,-999.0,84,-99.99,,,0.00,weatherlink.com 1.10,2013-01-26 00:15:00,
2013-01-25 19:29:00,21.2,17.0,27.35,SSE,168,0.0,-999.0,84,-99.99,,,0.00,weatherlink.com 1.10,2013-01-26 00:29:00,
2013-01-25 19:44:00,21.4,17.0,27.35,SSE,168,0.0,-999.0,84,-99.99,,,0.00,weatherlink.com 1.10,2013-01-26 00:44:00,
2013-01-25 19:59:00,21.5,17.0,27.35,SSE,168,0.0,-999.0,84,-99.99,,,0.00,weatherlink.com 1.10,2013-01-26 00:59:00,
2013-01-25 20:14:00,21.6,18.0,27.35,SSE,155,0.0,-999.0,84,-99.99,,,0.00,weatherlink.com 1.10,2013-01-26 01:14:00,
2013-01-25 20:44:00,21.7,18.0,27.35,SSE,153,0.0,-999.0,84,-99.99,,,0.00,weatherlink.com 1.10,2013-01-26 01:44:00,
2013-01-25 20:59:00,21.8,18.0,27.35,SSE,153,0.0,-999.0,84,-99.99,,,0.00,weatherlink.com 1.10,2013-01-26 01:59:00,
2013-01-25 21:15:00,21.9,18.0,27.35,SSE,153,0.0,-999.0,84,-99.99,,,0.00,weatherlink.com 1.10,2013-01-26 02:15:00,
2013-01-25 21:29:00,22.1,18.0,27.35,SSE,153,0.0,-999.0,84,-99.99,,,0.00,weatherlink.com 1.10,2013-01-26 02:29:00,
2013-01-25 21:44:00,22.2,18.0,27.35,South,172,0.0,-999.0,84,-99.99,,,0.00,weatherlink.com 1.10,2013-01-26 02:44:00,
2013-01-25 21:59:00,22.3,18.0,27.35,South,172,0.0,-999.0,83,-99.99,,,0.00,weatherlink.com 1.10,2013-01-26 02:59:00,
2013-01-25 22:14:00,22.4,18.0,27.35,South,172,0.0,-999.0,83,-99.99,,,0.00,weatherlink.com 1.10,2013-01-26 03:14:00,
2013-01-25 22:30:00,22.5,18.0,27.35,South,172,0.0,-999.0,83,-99.99,,,0.00,weatherlink.com 1.10,2013-01-26 03:30:00,
2013-01-25 22:45:00,22.6,18.0,27.35,South,172,0.0,-999.0,83,-99.99,,,0.00,weatherlink.com 1.10,2013-01-26 03:45:00,
2013-01-25 22:59:00,22.7,18.0,27.35,South,172,0.0,-999.0,82,-99.99,,,0.00,weatherlink.com 1.10,2013-01-26 03:59:00,
2013-01-25 23:14:00,22.8,18.0,27.35,South,172,0.0,-999.0,82,-99.99,,,0.00,weatherlink.com 1.10,2013-01-26 04:14:00,
2013-01-25 23:30:00,23.0,18.0,27.35,South,172,0.0,-999.0,82,-99.99,,,0.00,weatherlink.com 1.10,2013-01-26 04:30:00,
2013-01-25 23:44:00,23.1,18.0,27.35,South,172,0.0,-999.0,82,-99.99,,,0.00,weatherlink.com 1.10,2013-01-26 04:44:00,
2013-01-25 23:59:00,23.1,18.0,27.35,South,172,0.0,-999.0,81,-99.99,,,0.00,weatherlink.com 1.10,2013-01-26 04:59:00,